Weather History for Courtland, AL

Change the Weather History Date:

Tuesday, January 17, 2012

  Actual Average (KMSL) Record (KMSL)
Temperature  
Mean Temperature 56 °F 41 °F  
Max Temperature 64 °F 51 °F 84 °F (1936)
Min Temperature 46 °F 31 °F -3 °F (1982)
Degree Days  
Heating Degree Days 9 24  
Month to date heating degree days 408  
Since 1 July heating degree days 1644  
Cooling Degree Days 0 0  
Month to date cooling degree days 0  
Year to date cooling degree days 0  
Growing Degree Days 6 (Base 50)    
Moisture  
Dew Point 54 °F    
Average Humidity 88    
Maximum Humidity 100    
Minimum Humidity 59    
Precipitation  
Precipitation 0.00 in 0.15 in 2.33 in (2006)
Month to date precipitation 2.49  
Year to date precipitation 2.49  
Snow  
Snow 0.00 in - - ()
Month to date snowfall  
Since 1 July snowfall  
Snow Depth -    
Sea Level Pressure  
Sea Level Pressure 30.05 in    
Wind  
Wind Speed 15 mph (SW)    
Max Wind Speed 22 mph    
Max Gust Speed 29 mph    
Visibility 9 miles    
Events Rain    
T = Trace of Precipitation, MM = Missing Value Source: NWS Daily Summary

Daily Weather History Graph

Daily Weather History Graph

Search for Another Location

Airport:

Trip Planner

Search our weather history database for the weather conditions in past years. The results will help you decide how hot, cold, wet, or windy it might be!

Date:

Astronomy

Jan. 17, 2012 Rise Set
Actual Time 6:55 AM CST 5:03 PM CST
Civil Twilight 6:28 AM CST 5:30 PM CST
Nautical Twilight 5:57 AM CST 6:01 PM CST
Astronomical Twilight 5:27 AM CST 6:31 PM CST
Moon 1:16 AM CST (1/17) 11:55 AM CST (1/17)
Length of Visible Light 11h 02m
Length of Day
10h 07m
Waning Crescent, 35% of the Moon is Illuminated
Jan 17
Waning Crescent
Jan 23
New
Jan 30
First Quarter
Feb 7
Full
Feb 14
Last Quarter

Hourly Weather History & Observations

Time (CST) Temp. Windchill Dew Point Humidity Pressure Visibility Wind Dir Wind Speed Gust Speed Precip Events Conditions
12:15 AM 59.0 °F - 44.6 °F 59% 30.16 in 10.0 mi SSW 15.0 mph 19.6 mph N/A   Overcast
12:35 AM 57.2 °F - 46.4 °F 67% 30.15 in 10.0 mi South 12.7 mph 21.9 mph N/A   Overcast
12:55 AM 57.2 °F - 46.4 °F 67% 30.14 in 10.0 mi SSW 13.8 mph 20.7 mph N/A   Mostly Cloudy
1:15 AM 57.2 °F - 50.0 °F 77% 30.15 in 10.0 mi SSW 15.0 mph 20.7 mph N/A   Mostly Cloudy
1:35 AM 59.0 °F - 50.0 °F 72% 30.15 in 10.0 mi SSW 11.5 mph 23.0 mph N/A   Overcast
1:55 AM 57.2 °F - 50.0 °F 77% 30.14 in 10.0 mi SSW 13.8 mph - N/A   Overcast
2:15 AM 57.2 °F - 50.0 °F 77% 30.13 in 10.0 mi SSW 17.3 mph 21.9 mph N/A   Overcast
2:35 AM 57.2 °F - 50.0 °F 77% 30.13 in 10.0 mi South 16.1 mph 20.7 mph N/A   Overcast
2:55 AM 57.2 °F - 50.0 °F 77% 30.12 in 10.0 mi SSW 16.1 mph 23.0 mph N/A   Overcast
3:15 AM 57.2 °F - 51.8 °F 82% 30.12 in 10.0 mi South 15.0 mph 23.0 mph N/A   Overcast
3:35 AM 55.4 °F - 51.8 °F 88% 30.09 in 10.0 mi South 17.3 mph 23.0 mph N/A   Light Drizzle
3:55 AM 55.4 °F - 51.8 °F 88% 30.08 in 10.0 mi South 15.0 mph 28.8 mph N/A Rain Light Rain
4:15 AM 57.2 °F - 51.8 °F 82% 30.09 in 10.0 mi South 15.0 mph 23.0 mph N/A Rain Light Rain
4:35 AM 55.4 °F - 51.8 °F 88% 30.08 in 10.0 mi SSW 19.6 mph 25.3 mph N/A Rain Heavy Rain
4:55 AM 55.4 °F - 53.6 °F 94% 30.07 in 5.0 mi SSW 19.6 mph 26.5 mph N/A Rain Rain
5:15 AM 55.4 °F - 53.6 °F 94% 30.06 in 10.0 mi SSW 16.1 mph 25.3 mph N/A   Overcast
5:35 AM 55.4 °F - 53.6 °F 94% 30.05 in 7.0 mi South 15.0 mph 23.0 mph N/A Rain Rain
5:55 AM 55.4 °F - 53.6 °F 94% 30.05 in 10.0 mi South 15.0 mph - N/A Rain Light Rain
6:15 AM 55.4 °F - 55.4 °F 100% 30.05 in 10.0 mi SSW 12.7 mph 20.7 mph N/A   Overcast
6:35 AM 55.4 °F - 55.4 °F 100% 30.04 in 10.0 mi SSW 15.0 mph 18.4 mph N/A   Overcast
6:55 AM 57.2 °F - 55.4 °F 94% 30.04 in 10.0 mi SSW 16.1 mph 21.9 mph N/A   Overcast
7:15 AM 59.0 °F - 55.4 °F 88% 30.05 in 10.0 mi SSW 17.3 mph 25.3 mph N/A   Overcast
7:35 AM 59.0 °F - 55.4 °F 88% 30.04 in 10.0 mi SSW 15.0 mph 26.5 mph N/A   Overcast
7:55 AM 59.0 °F - 57.2 °F 94% 30.05 in 10.0 mi SW 15.0 mph 18.4 mph N/A   Overcast
8:15 AM 59.0 °F - 57.2 °F 94% 30.05 in 10.0 mi SSW 18.4 mph 25.3 mph N/A   Overcast
8:35 AM 59.0 °F - 57.2 °F 94% 30.05 in 10.0 mi SW 20.7 mph 28.8 mph N/A   Overcast
8:55 AM 60.8 °F - 57.2 °F 88% 30.05 in 10.0 mi SW 17.3 mph 24.2 mph N/A   Overcast
9:15 AM 60.8 °F - 57.2 °F 88% 30.06 in 10.0 mi SW 18.4 mph 25.3 mph N/A   Overcast
9:35 AM 60.8 °F - 59.0 °F 94% 30.07 in 10.0 mi SW 16.1 mph 25.3 mph N/A   Overcast
9:55 AM 60.8 °F - 59.0 °F 94% 30.07 in 10.0 mi SW 17.3 mph 26.5 mph N/A   Overcast
10:15 AM 60.8 °F - 59.0 °F 94% 30.06 in 10.0 mi SW 17.3 mph 25.3 mph N/A   Overcast
10:55 AM 60.8 °F - 59.0 °F 94% 30.04 in 10.0 mi SSW 18.4 mph 23.0 mph N/A   Overcast
11:15 AM 62.6 °F - 59.0 °F 88% 30.02 in 10.0 mi SSW 15.0 mph 24.2 mph N/A   Overcast
11:35 AM 62.6 °F - 59.0 °F 88% 30.00 in 10.0 mi SW 17.3 mph - N/A   Overcast
12:15 PM 62.6 °F - 60.8 °F 94% 29.99 in 10.0 mi SW 18.4 mph 25.3 mph N/A   Overcast
12:35 PM 64.4 °F - 60.8 °F 88% 29.98 in 10.0 mi SW 15.0 mph 25.3 mph N/A   Overcast
12:55 PM 62.6 °F - 60.8 °F 94% 29.98 in 10.0 mi SW 16.1 mph - N/A   Drizzle
1:15 PM 62.6 °F - 60.8 °F 94% 29.96 in 5.0 mi SSW 13.8 mph - N/A Rain Rain
1:35 PM 62.6 °F - 60.8 °F 94% 29.95 in 7.0 mi SSW 11.5 mph 20.7 mph N/A Rain Rain
1:55 PM 62.6 °F - 60.8 °F 94% 29.93 in 7.0 mi SSW 11.5 mph - N/A Rain Light Rain
2:35 PM 62.6 °F - 60.8 °F 94% 29.92 in 10.0 mi SW 17.3 mph 23.0 mph N/A   Overcast
2:55 PM 62.6 °F - 60.8 °F 94% 29.91 in 10.0 mi SW 11.5 mph 17.3 mph N/A   Overcast
3:15 PM 62.6 °F - 62.6 °F 100% 29.91 in 10.0 mi SSW 10.4 mph 16.1 mph N/A   Overcast
3:35 PM 62.6 °F - 60.8 °F 94% 29.91 in 10.0 mi SW 6.9 mph - N/A   Overcast
4:15 PM 62.6 °F - 62.6 °F 100% 29.96 in 4.0 mi NNW 21.9 mph 27.6 mph N/A Rain Heavy Rain
4:35 PM 57.2 °F - 57.2 °F 100% 29.98 in 2.5 mi WNW 11.5 mph 21.9 mph N/A Rain Light Rain
4:55 PM 55.4 °F - 55.4 °F 100% 30.01 in 10.0 mi NNW 9.2 mph - N/A Rain Rain
5:15 PM 55.4 °F - 53.6 °F 94% 30.02 in 7.0 mi NNW 11.5 mph - N/A Rain Rain
5:35 PM 55.4 °F - 51.8 °F 88% 30.02 in 7.0 mi NNW 10.4 mph - N/A Rain Light Rain
5:55 PM 55.4 °F - 51.8 °F 88% 30.03 in 10.0 mi NNW 10.4 mph - N/A Rain Rain
6:15 PM 53.6 °F - 51.8 °F 94% 30.06 in 10.0 mi WNW 9.2 mph - N/A   Overcast
6:35 PM 53.6 °F - 50.0 °F 88% 30.06 in 10.0 mi NW 13.8 mph - N/A   Overcast
6:55 PM 53.6 °F - 48.2 °F 82% 30.08 in 10.0 mi NNW 13.8 mph - N/A   Overcast
7:15 PM 51.8 °F - 46.4 °F 82% 30.10 in 10.0 mi NNW 13.8 mph 23.0 mph N/A   Overcast
7:35 PM 51.8 °F - 42.8 °F 71% 30.10 in 10.0 mi NNW 13.8 mph 21.9 mph N/A   Mostly Cloudy
7:55 PM 50.0 °F - 41.0 °F 71% 30.12 in 10.0 mi NNW 18.4 mph 23.0 mph N/A   Scattered Clouds
8:15 PM 48.2 °F - 41.0 °F 76% 30.13 in 10.0 mi NNW 13.8 mph 20.7 mph N/A   Clear
8:35 PM 46.4 °F 39.8 °F 41.0 °F 81% 30.14 in 10.0 mi NNW 16.1 mph 20.7 mph N/A   Clear
8:55 PM 46.4 °F 39.8 °F 39.2 °F 76% 30.16 in 10.0 mi NNW 16.1 mph 19.6 mph N/A   Clear
9:15 PM 44.6 °F 36.9 °F 35.6 °F 71% 30.17 in 10.0 mi North 18.4 mph - N/A   Clear
9:35 PM 42.8 °F 35.8 °F 35.6 °F 76% 30.17 in 10.0 mi North 13.8 mph - N/A   Clear
9:55 PM 41.0 °F 33.9 °F 33.8 °F 76% 30.18 in 10.0 mi NNW 12.7 mph - N/A   Clear
10:15 PM 41.0 °F 34.3 °F 33.8 °F 76% 30.19 in 10.0 mi NNW 11.5 mph - N/A   Clear
10:35 PM 39.2 °F 30.5 °F 32.0 °F 75% 30.20 in 10.0 mi NNW 16.1 mph - N/A   Clear
10:55 PM 37.4 °F 28.5 °F 32.0 °F 81% 30.21 in 10.0 mi NNW 15.0 mph - N/A   Clear
11:15 PM 37.4 °F 29.3 °F 32.0 °F 81% 30.21 in 10.0 mi North 12.7 mph - N/A   Clear
11:35 PM 37.4 °F 28.9 °F 32.0 °F 81% 30.22 in 10.0 mi NNW 13.8 mph 20.7 mph N/A   Scattered Clouds
11:55 PM 35.6 °F 26.6 °F 32.0 °F 87% 30.21 in 10.0 mi NNW 13.8 mph - N/A   Mostly Cloudy